Temperature
3 3 4 4 4 4 4 4 4 5 5 5 5 5 5 6 6 6 6 6 6 6 6 6 6 6 6 6 6 6 6 5 5 5 6 5 5 5 5 5 4 4 4
3 3 3 3 3 3 3 4 4 4 4 4 5 5 5 5 5 5 5 5 5 5 6 5 6 6 6 5 5 5 5 5 5 5 5 5 5 4 4 4 4 4 4
2 3 3 3 3 3 3 3 3 3 4 4 4 4 5 5 5 5 5 5 5 5 5 5 5 5 5 5 5 5 5 5 5 5 5 4 4 4 4 4 4 4 4
2 2 2 2 2 3 3 3 3 3 3 3 4 4 4 4 4 5 5 5 5 5 5 5 5 5 5 5 5 5 4 4 4 4 4 4 4 4 4 4 4 3 3
2 2 2 2 2 2 2 2 2 2 3 3 3 3 3 4 4 4 4 4 4 4 4 4 4 4 4 4 4 4 4 4 3 4 3 3 3 3 3 3 3 3 3
1 1 1 1 1 1 1 2 2 2 2 2 3 3 3 3 3 3 4 3 4 4 4 4 4 4 4 4 4 4 4 3 3 3 3 3 3 3 3 3 2 2 2
1 1 1 1 1 1 1 1 1 2 2 2 2 2 2 3 3 3 3 3 3 3 3 3 3 3 3 3 3 3 3 3 3 3 3 3 3 3 3 2 2 2 2
0 0 1 1 1 1 1 1 1 1 1 1 2 2 2 2 2 2 2 2 3 3 3 3 3 3 3 3 3 3 3 3 3 3 3 3 3 3 2 2 2 2 2
-0 -0 -0 0 0 0 1 1 1 1 1 1 1 1 2 2 2 2 2 2 2 2 2 2 2 2 2 2 2 2 2 2 2 2 2 2 2 2 2 2 1 1 1
-1 -1 -1 -0 -0 -0 0 0 0 0 0 0 1 1 1 1 1 1 1 1 1 2 2 2 2 2 2 2 2 2 2 2 2 2 2 2 2 2 2 2 1 1 1
-1 -1 -1 -1 -1 -1 -1 -0 -0 -0 -0 -0 0 0 0 0 1 1 1 1 1 1 1 1 1 1 1 1 2 2 2 2 2 2 2 2 2 2 2 1 1 1 1
-2 -2 -2 -1 -1 -1 -1 -1 -1 -1 -1 -0 -0 -0 -0 -0 -0 -0 0 0 0 0 0 1 1 1 1 1 1 1 1 1 1 1 1 1 1 1 1 1 1 1 1
-2 -2 -2 -2 -2 -2 -2 -1 -1 -1 -1 -1 -1 -1 -1 -1 -1 -1 -1 -0 -0 -0 -0 -0 0 0 0 0 0 1 1 1 1 1 1 1 1 1 1 1 1 1 1
-3 -2 -2 -2 -2 -2 -2 -2 -2 -2 -2 -2 -2 -2 -2 -1 -1 -1 -1 -1 -1 -1 -1 -0 -0 -0 0 -0 0 0 0 0 0 0 0 0 0 0 0 0 0 0 0
-3 -3 -3 -3 -3 -3 -3 -3 -2 -2 -3 -3 -3 -3 -3 -2 -2 -2 -2 -1 -1 -1 -1 -1 -1 -0 -0 -0 -0 -0 -0 -0 -0 -0 -0 -0 -0 -0 -0 -0 -0 -0 -0
-3 -3 -3 -3 -3 -3 -3 -3 -3 -3 -3 -3 -3 -3 -3 -3 -2 -2 -2 -2 -1 -1 -1 -1 -1 -1 -1 -1 -1 -1 -1 -1 -1 -1 -1 -0 -0 -0 -0 -0 -0 -0 -0
-4 -4 -4 -4 -4 -4 -4 -3 -3 -3 -3 -3 -3 -3 -3 -3 -2 -2 -2 -2 -2 -2 -2 -1 -1 -1 -1 -1 -1 -1 -1 -1 -1 -1 -1 -1 -1 -1 -1 -1 -1 -1 -1
-4 -4 -4 -4 -4 -4 -4 -4 -4 -4 -3 -3 -3 -3 -3 -3 -3 -2 -2 -2 -2 -2 -2 -2 -2 -2 -2 -2 -2 -2 -2 -2 -1 -1 -1 -1 -1 -1 -1 -1 -1 -1 -1
-4 -4 -4 -4 -4 -5 -4 -4 -4 -4 -4 -4 -4 -3 -3 -3 -3 -3 -3 -2 -2 -2 -2 -2 -2 -2 -2 -2 -2 -2 -2 -2 -2 -2 -2 -2 -2 -2 -1 -1 -1 -1 -1
-4 -5 -5 -5 -5 -5 -5 -5 -5 -5 -5 -5 -4 -4 -4 -4 -3 -3 -3 -3 -3 -3 -3 -3 -3 -3 -3 -2 -2 -2 -2 -2 -2 -2 -2 -2 -2 -2 -2 -1 -1 -2 -2
-5 -5 -5 -5 -5 -5 -5 -5 -5 -5 -5 -5 -5 -5 -5 -4 -4 -4 -3 -3 -3 -3 -3 -3 -3 -3 -3 -3 -3 -3 -2 -2 -2 -2 -2 -2 -2 -2 -2 -2 -2 -2 -2
-5 -5 -5 -5 -5 -5 -6 -6 -6 -5 -5 -5 -5 -5 -5 -4 -4 -4 -4 -4 -4 -4 -3 -3 -3 -3 -3 -3 -3 -3 -3 -3 -3 -3 -3 -2 -2 -2 -2 -2 -2 -2 -2
-6 -6 -6 -6 -6 -6 -6 -6 -6 -6 -6 -6 -5 -5 -5 -5 -4 -4 -4 -4 -4 -4 -4 -4 -3 -3 -3 -3 -3 -3 -3 -3 -3 -3 -3 -2 -2 -2 -2 -2 -2 -2 -2
-6 -6 -6 -6 -6 -6 -6 -6 -6 -6 -6 -6 -6 -5 -5 -5 -5 -5 -4 -4 -4 -4 -4 -4 -4 -3 -3 -3 -3 -3 -3 -3 -3 -3 -3 -2 -2 -2 -2 -2 -2 -2 -2
-6 -6 -6 -7 -7 -7 -7 -7 -6 -6 -6 -6 -6 -6 -5 -5 -5 -5 -5 -5 -4 -4 -4 -4 -4 -3 -3 -3 -3 -3 -3 -3 -3 -3 -3 -3 -2 -2 -2 -2 -2 -2 -2
-6 -7 -7 -7 -7 -7 -7 -7 -7 -7 -6 -6 -6 -6 -6 -6 -5 -5 -5 -5 -5 -4 -4 -4 -4 -4 -4 -3 -3 -3 -3 -3 -3 -3 -3 -3 -3 -2 -2 -2 -2 -2 -2
Wind_Speed
3 2 2 2 2 1 1 2 2 2 2 2 2 3 3 3 3 3 4 4 4 4 4 4 5 4 4 4 3 3 2 2 3 2 1 1 1 2 2 3 3 3 3
3 3 2 2 1 1 1 2 2 2 2 2 2 2 3 3 3 4 5 4 4 5 5 5 4 3 4 4 4 3 3 3 3 3 2 1 2 2 2 2 2 3 4
3 3 2 2 1 1 2 2 2 2 2 1 1 2 2 3 3 4 4 4 4 4 5 5 5 4 4 4 4 4 3 2 2 3 2 1 2 1 1 1 1 2 3
3 2 2 3 2 2 2 1 2 2 2 1 2 2 2 2 3 2 3 3 4 4 4 4 5 6 5 5 4 4 3 3 2 3 2 2 2 1 1 1 2 1 2
3 3 3 3 3 2 2 2 2 2 2 2 2 2 2 2 2 1 2 2 3 3 3 3 4 5 6 5 4 4 4 3 2 3 3 1 2 1 1 1 2 2 3
2 2 2 2 2 3 2 2 2 2 2 2 2 2 3 3 3 2 1 2 2 3 3 3 3 3 4 4 5 5 5 5 4 3 3 3 3 3 2 1 1 2 2
3 3 2 2 2 3 2 2 2 2 2 2 2 2 3 3 3 2 1 1 2 3 3 3 2 2 2 2 3 3 4 5 6 5 4 4 4 4 3 2 2 2 3
3 3 3 3 3 3 2 2 2 2 2 2 3 2 3 3 3 2 1 1 1 3 3 3 3 3 3 3 3 2 2 2 4 3 4 4 3 4 4 4 3 1 2
3 3 3 3 3 3 3 3 2 2 2 2 3 2 2 3 4 2 1 0 1 1 2 2 3 4 4 4 4 3 2 1 1 1 2 2 2 3 3 2 1 1 2
4 4 3 3 2 3 3 3 2 2 2 2 3 2 2 2 4 3 2 0 1 1 1 1 3 3 4 5 4 4 3 2 1 1 1 2 1 1 1 2 3 2 1
4 4 4 3 3 2 2 2 2 2 2 2 3 3 2 3 4 4 3 1 1 1 1 1 2 3 4 4 4 4 4 2 2 1 0 1 1 1 0 0 1 2 2
3 3 4 3 3 3 2 2 2 2 2 2 2 3 3 3 3 4 4 2 2 1 1 1 1 1 2 2 2 3 3 2 2 2 1 0 1 1 1 1 1 1 1
3 4 4 4 3 3 2 2 2 2 2 2 2 3 3 3 3 5 5 4 3 1 1 1 0 1 1 1 2 3 3 2 3 2 1 1 1 1 1 1 1 2 3
3 4 4 3 4 4 3 3 2 2 2 2 2 3 3 3 3 3 3 3 3 2 1 1 2 2 2 2 2 2 1 2 2 2 1 0 1 1 1 1 1 1 2
4 4 4 4 4 4 4 3 3 2 2 3 2 2 3 3 3 5 4 2 2 1 0 1 1 1 1 1 1 1 1 1 1 1 1 1 0 0 1 1 0 0 0
3 4 4 3 3 3 3 4 6 5 6 6 5 4 4 4 6 6 5 5 4 2 1 1 1 1 1 1 0 1 0 0 1 1 1 1 1 1 1 1 1 0 0
2 3 3 3 3 3 3 3 4 6 8 8 8 8 6 6 6 5 5 4 3 2 0 1 1 1 1 1 0 0 0 0 0 1 1 1 1 0 0 0 0 1 1
2 3 3 2 3 3 3 3 3 3 5 5 7 8 9 8 7 6 4 3 2 2 0 0 1 1 1 1 0 0 0 0 0 0 0 1 1 1 0 0 0 0 0
2 2 2 2 2 2 2 2 3 3 3 4 5 6 9 8 7 7 5 2 1 1 1 1 1 1 1 1 0 1 1 1 1 1 0 1 1 1 1 1 1 0 0
2 3 3 2 2 2 2 2 2 3 3 4 4 5 5 5 4 4 4 2 2 1 1 1 1 0 0 0 0 0 0 1 0 0 1 1 1 1 1 1 1 1 1
2 2 4 3 2 2 2 2 2 2 3 3 4 5 6 4 3 4 3 3 2 2 1 1 1 1 0 0 0 1 1 1 1 1 1 1 0 0 1 1 1 1 1
1 2 2 2 2 2 2 2 2 2 3 3 4 5 7 4 3 3 3 3 3 2 2 1 1 1 1 1 1 1 1 1 1 1 1 1 0 1 1 1 1 1 1
1 1 2 2 2 2 3 2 2 2 3 3 3 4 4 4 4 4 4 4 4 3 3 2 1 2 2 1 1 1 2 2 2 2 1 1 0 1 1 1 2 2 1
1 1 1 1 2 2 2 2 2 2 3 3 3 3 4 4 4 4 4 4 4 4 4 3 3 2 3 2 2 2 1 1 1 1 2 2 1 1 1 1 1 2 1
1 1 1 1 1 1 1 2 2 2 2 3 3 3 4 4 4 4 4 4 4 4 4 4 4 3 3 3 2 2 1 0 0 0 1 1 1 1 2 2 2 2 1
1 1 1 0 1 1 1 1 2 2 2 3 3 3 4 4 4 4 4 4 4 4 4 4 5 5 4 4 3 2 1 1 1 1 2 1 2 2 2 2 2 2 2
Wind_Direction
329 321 313 302 288 290 280 275 266 263 250 247 239 236 238 232 222 217 226 213 209 211 208 206 218 205 198 202 193 193 203 196 220 264 264 260 250 251 271 261 265 264 276
323 324 312 303 298 291 291 289 285 278 267 258 252 254 254 243 226 220 231 221 216 215 212 207 218 206 201 199 190 191 201 209 201 223 260 252 253 246 248 265 287 281 277
337 331 323 318 326 310 292 301 299 290 291 286 292 277 272 266 248 236 229 219 219 223 216 211 214 203 208 202 197 194 198 208 198 193 233 255 264 250 261 290 296 297 294
332 330 331 328 322 310 310 316 306 299 300 304 296 276 270 274 267 252 220 218 215 218 216 213 213 205 202 198 199 195 189 191 186 187 212 242 255 248 196 267 311 311 314
334 336 325 323 331 335 338 332 323 319 315 311 306 296 285 276 271 256 218 220 210 214 216 221 220 213 209 203 199 190 185 190 195 203 210 231 249 232 241 241 290 320 314
331 323 325 336 342 340 335 337 335 335 334 332 322 309 297 293 299 291 266 230 220 212 216 221 224 212 212 211 207 202 196 196 205 212 222 228 237 231 227 239 273 314 300
335 331 333 340 341 334 331 342 338 335 342 335 326 320 303 296 313 317 291 241 225 218 211 207 221 219 206 197 205 215 224 226 219 214 216 231 229 217 208 224 233 258 272
341 337 338 346 340 335 345 345 341 338 335 323 318 312 310 320 330 321 303 292 255 226 213 204 208 212 205 187 178 194 241 249 246 230 222 227 234 216 203 207 213 255 300
345 338 335 337 332 340 348 344 338 340 333 326 324 324 326 328 339 333 338 299 285 252 229 214 209 206 203 184 171 189 228 270 316 267 269 262 253 242 189 153 168 213 296
339 331 329 333 332 334 333 332 332 333 330 328 334 340 329 318 341 350 353 293 290 260 227 239 233 219 206 193 181 183 204 231 173 55 15 12 6 284 232 192 189 205 262
335 338 342 343 337 333 339 341 336 341 351 349 340 341 344 344 345 354 358 317 263 255 229 236 251 237 211 200 190 189 201 186 167 169 168 17 0 348 290 251 211 202 224
343 345 346 343 344 354 359 351 352 356 0 352 353 354 356 351 351 350 352 344 311 253 238 240 222 218 195 191 192 178 162 139 139 141 132 235 302 326 326 331 342 345 237
355 352 351 353 356 357 4 359 358 4 1 347 347 345 343 347 346 349 351 353 345 317 251 257 210 159 157 161 154 145 136 137 141 144 189 259 294 306 349 19 35 36 32
4 359 359 2 3 8 9 7 3 357 352 341 336 336 335 337 339 341 341 342 346 349 25 76 68 81 92 105 119 120 130 156 155 170 197 255 356 3 352 353 354 13 18
8 2 3 6 8 9 10 8 354 347 331 325 325 317 314 318 324 336 331 324 328 322 22 87 71 85 80 77 77 85 102 111 110 114 154 151 113 351 325 329 329 7 39
7 4 4 4 4 6 9 9 12 5 1 359 353 339 326 329 334 335 335 336 337 332 2 144 143 153 159 153 107 51 72 114 142 155 162 162 199 236 317 335 3 70 74
9 356 353 358 1 1 1 1 359 4 12 13 6 360 353 347 345 339 334 335 342 347 34 169 186 188 187 180 184 215 283 287 207 192 192 204 226 246 309 339 49 45 25
10 1 357 351 354 353 350 347 348 353 355 355 357 1 1 358 356 351 346 350 354 13 40 212 209 201 188 184 202 238 275 266 240 242 224 214 216 210 210 204 174 141 352
3 1 356 353 351 346 344 348 351 351 351 347 349 355 0 359 359 3 7 12 352 341 339 307 253 223 206 194 205 204 202 218 246 237 240 223 217 212 216 207 190 189 320
2 3 2 2 358 355 356 357 357 356 354 352 351 347 347 352 358 353 355 355 348 333 326 316 313 288 240 208 207 197 204 232 228 252 252 242 230 219 195 187 186 188 221
360 359 359 3 1 356 356 357 355 354 349 345 339 339 343 347 349 342 338 340 335 325 321 319 322 318 294 251 220 215 231 253 259 269 256 250 219 177 182 185 179 172 169
1 357 354 352 353 354 356 355 354 349 344 340 338 342 353 358 352 344 345 341 337 334 328 318 309 309 265 223 210 216 236 249 253 256 258 257 243 179 177 171 160 154 146
9 5 1 356 355 355 0 1 358 350 344 340 339 343 348 349 346 346 342 337 339 341 343 346 339 335 343 338 306 253 234 241 248 230 214 212 207 185 167 159 156 159 156
7 1 356 354 356 359 356 352 350 346 344 342 340 339 338 340 340 339 338 339 341 347 350 350 349 351 349 349 350 337 305 274 257 235 206 187 175 165 151 145 154 163 165
23 4 346 335 337 336 336 334 336 338 340 337 335 335 335 337 337 337 340 343 347 351 352 353 358 357 352 346 347 350 345 334 349 121 141 154 153 150 150 148 145 141 129
6 345 322 310 303 302 302 309 317 324 327 328 330 331 331 332 333 337 340 346 351 354 355 359 1 359 355 355 357 2 12 42 68 93 108 125 134 126 131 136 130 129 124
Height
1446 1446 1445 1445 1445 1445 1445 1445 1446 1446 1447 1447 1447 1449 1449 1449 1450 1451 1453 1454 1454 1455 1457 1458 1460 1461 1462 1464 1465 1465 1466 1467 1466 1466 1468 1469 1470 1470 1470 1470 1470 1470 1469
1444 1444 1444 1443 1443 1443 1443 1443 1443 1443 1444 1444 1444 1445 1445 1446 1446 1447 1448 1449 1450 1451 1452 1454 1455 1457 1458 1460 1461 1461 1462 1463 1463 1462 1464 1465 1466 1466 1466 1466 1466 1466 1466
1442 1442 1441 1441 1440 1440 1440 1440 1441 1441 1441 1441 1441 1441 1442 1442 1443 1443 1444 1445 1446 1447 1448 1450 1451 1452 1454 1455 1457 1457 1459 1460 1460 1460 1460 1461 1462 1462 1462 1462 1462 1462 1462
1439 1439 1438 1438 1437 1437 1437 1438 1438 1438 1438 1438 1438 1439 1439 1439 1439 1439 1439 1441 1442 1443 1444 1446 1447 1448 1450 1451 1453 1453 1455 1456 1456 1456 1457 1457 1458 1458 1458 1458 1457 1458 1458
1437 1436 1436 1436 1435 1435 1435 1435 1435 1435 1435 1435 1435 1435 1436 1436 1435 1436 1436 1437 1438 1439 1441 1442 1443 1444 1446 1447 1449 1450 1451 1451 1452 1452 1453 1453 1454 1454 1454 1454 1453 1453 1453
1435 1435 1435 1434 1433 1433 1433 1433 1433 1433 1433 1433 1433 1433 1433 1433 1433 1433 1433 1434 1435 1436 1437 1438 1439 1441 1442 1444 1445 1446 1448 1448 1448 1449 1449 1449 1449 1450 1450 1450 1450 1450 1449
1433 1433 1433 1432 1431 1432 1432 1431 1431 1430 1430 1430 1430 1430 1430 1430 1430 1430 1430 1431 1432 1433 1433 1434 1435 1437 1438 1440 1441 1443 1444 1445 1446 1446 1445 1446 1446 1447 1447 1447 1447 1447 1446
1432 1431 1431 1430 1430 1430 1430 1429 1428 1428 1428 1428 1428 1427 1427 1427 1427 1428 1428 1428 1429 1429 1430 1431 1432 1433 1435 1436 1438 1439 1440 1441 1442 1442 1443 1443 1444 1444 1444 1445 1444 1444 1444
1430 1430 1429 1428 1428 1428 1427 1427 1427 1426 1426 1426 1426 1425 1424 1424 1425 1425 1426 1426 1426 1427 1427 1428 1429 1430 1432 1433 1435 1436 1437 1438 1439 1440 1440 1441 1441 1441 1442 1442 1441 1440 1439
1429 1428 1428 1427 1427 1426 1426 1425 1425 1425 1424 1424 1424 1423 1422 1422 1422 1423 1423 1423 1423 1424 1425 1425 1426 1427 1428 1430 1431 1432 1433 1435 1436 1436 1437 1438 1438 1438 1439 1439 1438 1438 1437
1428 1427 1426 1426 1426 1425 1425 1424 1424 1424 1423 1422 1422 1421 1421 1420 1420 1420 1421 1421 1421 1422 1422 1423 1423 1424 1426 1427 1428 1429 1430 1432 1432 1433 1434 1434 1435 1435 1435 1435 1436 1435 1435
1427 1426 1425 1425 1424 1424 1423 1423 1423 1422 1422 1421 1420 1420 1419 1419 1419 1419 1419 1419 1419 1420 1420 1421 1422 1423 1424 1424 1425 1426 1428 1429 1430 1431 1431 1432 1432 1432 1432 1433 1433 1433 1433
1426 1425 1425 1424 1424 1423 1422 1422 1421 1421 1420 1419 1418 1417 1417 1417 1417 1417 1417 1417 1418 1418 1418 1419 1420 1420 1421 1422 1423 1424 1426 1427 1427 1428 1428 1429 1429 1429 1429 1430 1430 1430 1430
1425 1424 1424 1423 1423 1422 1421 1421 1420 1420 1419 1418 1417 1417 1416 1416 1416 1416 1416 1416 1416 1416 1417 1417 1418 1418 1419 1420 1421 1423 1423 1424 1425 1425 1426 1426 1427 1427 1427 1427 1427 1427 1427
1425 1424 1423 1422 1422 1421 1421 1420 1420 1419 1419 1418 1417 1417 1416 1415 1415 1415 1415 1415 1415 1415 1415 1416 1416 1417 1417 1418 1419 1420 1421 1421 1422 1423 1423 1424 1424 1425 1425 1425 1425 1425 1425
1424 1424 1423 1422 1421 1421 1420 1419 1419 1419 1418 1417 1417 1416 1415 1415 1414 1414 1413 1413 1413 1414 1414 1414 1415 1415 1416 1416 1417 1418 1419 1419 1420 1421 1421 1422 1422 1423 1423 1423 1423 1423 1423
1425 1424 1423 1422 1422 1421 1420 1419 1418 1418 1417 1416 1416 1415 1414 1413 1412 1412 1412 1411 1412 1412 1412 1412 1413 1414 1414 1415 1415 1416 1417 1418 1419 1419 1419 1420 1420 1421 1421 1421 1422 1422 1422
1425 1424 1423 1423 1422 1421 1420 1419 1418 1417 1415 1415 1414 1414 1413 1412 1411 1410 1410 1410 1410 1410 1410 1411 1411 1412 1413 1413 1414 1414 1415 1416 1417 1417 1417 1418 1419 1419 1419 1420 1420 1420 1420
1424 1424 1423 1422 1422 1421 1420 1419 1418 1417 1416 1414 1413 1413 1412 1411 1410 1410 1409 1409 1409 1409 1409 1410 1410 1411 1411 1412 1412 1413 1414 1414 1415 1415 1416 1416 1417 1417 1418 1419 1419 1419 1419
1424 1424 1423 1422 1421 1421 1420 1419 1418 1416 1415 1414 1413 1412 1411 1410 1409 1409 1408 1408 1408 1408 1409 1409 1409 1409 1409 1410 1410 1411 1412 1412 1413 1413 1414 1414 1415 1416 1416 1417 1417 1417 1418
1424 1423 1423 1422 1421 1420 1419 1418 1417 1416 1416 1415 1414 1413 1412 1411 1410 1409 1409 1408 1408 1408 1408 1408 1408 1408 1408 1408 1409 1409 1410 1410 1411 1412 1412 1413 1413 1414 1415 1416 1416 1416 1417
1423 1423 1422 1421 1420 1419 1419 1418 1417 1416 1415 1414 1414 1413 1412 1411 1410 1409 1408 1408 1408 1407 1407 1407 1407 1407 1407 1407 1408 1408 1408 1409 1409 1410 1411 1411 1412 1413 1413 1414 1415 1415 1416
1423 1422 1421 1420 1420 1419 1418 1418 1417 1416 1415 1415 1414 1413 1412 1411 1410 1409 1408 1408 1407 1406 1406 1406 1406 1406 1406 1406 1406 1407 1407 1407 1408 1409 1409 1410 1411 1412 1412 1413 1413 1414 1415
1422 1421 1420 1420 1419 1418 1418 1417 1417 1416 1415 1415 1414 1413 1412 1411 1410 1409 1408 1408 1407 1406 1406 1405 1405 1405 1405 1405 1405 1406 1406 1407 1407 1408 1409 1409 1410 1411 1411 1412 1412 1413 1414
1421 1421 1420 1419 1418 1418 1417 1417 1416 1415 1415 1414 1414 1413 1412 1411 1410 1409 1408 1407 1406 1406 1405 1405 1405 1404 1404 1404 1405 1405 1405 1406 1407 1407 1408 1408 1409 1410 1411 1411 1412 1413 1413
1420 1420 1419 1418 1418 1417 1417 1416 1415 1415 1414 1414 1413 1413 1412 1411 1410 1409 1408 1407 1406 1405 1405 1405 1404 1404 1404 1404 1404 1404 1405 1405 1406 1406 1407 1408 1409 1409 1410 1410 1411 1412 1413